Regional Weather Roundup
Issued by NWS

Home | Current Version | Previous Version | Graphics & Text | Print | Product List | Glossary On
Versions: 1 2 3 4 5 6 7 8 9 10 11 12 13 14 15 16 17 18 19 20 21 22 23 24 25 26 27 28 29 30 31 32 33 34 35 36 37 38 39 40 41 42 43 44 45 46 47 48 49 50
000
ASUS45 KBOI 050210
RWRID

IDAHO REGIONAL WEATHER ROUNDUP
NATIONAL WEATHER SERVICE BOISE ID
800 PM MDT SAT JUL 04 2015

NOTE: "FAIR" INDICATES FEW OR NO CLOUDS BELOW 12000 FEET
WITH NO SIGNIFICANT WEATHER AND/OR OBSTRUCTIONS TO VISIBILITY

IDZ012-014-050300-
SOUTHWEST IDAHO


CITY           SKY/WX    TMP DP  RH WIND       PRES   REMARKS
BOISE          PTSUNNY   96  39  13 CALM      29.75S HX  91
CALDWELL       PTSUNNY   95  52  23 E5        29.73R HX  92
MOUNTAIN HOME  PTSUNNY   98  31   9 N10       29.76R HX  92
$$

IDZ016-017-050300-
SOUTHCENTRAL IDAHO


CITY           SKY/WX    TMP DP  RH WIND       PRES   REMARKS
BURLEY         CLOUDY    85  51  31 S13       29.85R
JEROME         CLOUDY    84  53  34 S14       29.87R
TWIN FALLS     CLOUDY    85  49  28 S17G29    29.84S
$$

IDZ019>023-050300-
SOUTHEAST IDAHO


CITY           SKY/WX    TMP DP  RH WIND       PRES   REMARKS
IDAHO FALLS    PTSUNNY   88  44  21 S10       29.87S
POCATELLO      SUNNY     88  43  20 SW12      29.86S
REXBURG        PTSUNNY   86  46  24 S6        29.88S
$$

IDZ006-010-011-018-031-032-050300-
CENTRAL IDAHO MOUNTAINS


CITY           SKY/WX    TMP DP  RH WIND       PRES   REMARKS
MCCALL         CLOUDY    84  28  13 W5        29.92R
HAILEY         PTSUNNY   88  43  20 SW7       29.93
STANLEY          N/A     81  36  19 VRB6      30.06R
SALMON         PTSUNNY   81  63  54 CALM      29.74R
CHALLIS        CLOUDY    89  32  13 W14       29.87R
$$

IDZ002-004-006-007-026-050300-
NORTHERN IDAHO


CITY           SKY/WX    TMP DP  RH WIND       PRES   REMARKS
LEWISTON       PTSUNNY   98  40  13 NW9       29.64S HX  93
LOWELL           N/A     85  60  42 CALM      29.64R
COEUR D`ALENE  SUNNY     93  46  20 CALM      29.68S
MULLAN PASS    SUNNY     75  40  28 VRB3      30.00S
$$



USA.gov is the U.S. government's official web portal to all federal, state and local government web resources and services.